Location: Hamayl? Da??
(36.7028°N, 30.1716°E)
Time: 13:54:26
(UTC+00:00)

USA 245 - Pass Details

Date: 04 August 2024
Orbit: 263 x 964 km, 97.9° (Epoch: 10 September)

Event Time Altitude Azimuth Distance (km) Brightness Sun altitude
Exits shadow 18:51:34 36° 131° (SE) 1,350 4.7 -19.5°
Maximum altitude 18:53:38 55° 75° (ENE) 999 4.3 -19.9°
Drops below altitude 10° 18:58:32 10° 359° (N) 2,240 7.0 -20.6°
Sets 19:00:39 0° 354° (N) 3,057 7.9 -20.9°
